SOCRATES

Last updated on Wed Mar 25 2020 00:02:10 GMT+0000 (Coordinated Universal Time)

1 45263U 98067RG 20083.72650570 .00003752 00000-0 73706-4 0 9999 2 45263 51.6427 51.1510 0008462 43.0280 317.1369 15.49994654 5233
UTC large
Height (km)
Speed (km/s)
/
Latitude / Longitude
Inclination (degrees)
Orbital Period (minutes)
Azimuth
Elevation
Range (km)
Doppler Factor

Next 0 passes for location: London (51.5072 / 0.1276)

Sorry there are no passes over London.